Find Hai Yang 2-03

NORAD ID: 46469 Int'l Des: 2020-066 Owner: GYZ/CASC Country: CN operational
LEOCIRCULAR

Current View

Loading 3D Globe...

About Hai Yang 2-03

Description loading...

Upcoming Passes

Passes for default location (London). Set your location on the main map for personalized predictions.

Altitude History

Loading altitude history...

Two-Line Element Set

1 46469U 20066A 26150.23668325 -.00000002 00000-0 72370-4 0 9998
2 46469 65.9978 259.9755 0009602 238.4699 121.5432 13.83373474287014
Epoch: May 30, 2026 • Age: 5 hours

Current Status

Altitude 966.0 km
Velocity 7.37 km/s
Sub-Earth Point 49.75°N, 124.39°W
Launch Date Sep 21, 2020
Age 5.6 years
Type other

Technical Details

Classification Payload
Mass 1500.00 kg
Dry Mass 1500.00 kg
Total Mass 1500.00 kg
Length 1.00 m
Diameter 1.00 m
Span 4.00 m
Shape Box + 2 Pan
Manufacturer SISE
Bus Type CAST-968
Phase Status In Orbit
Owner/State GYZ/CASC/CN

Most Searched